When you browse on this site, cookies collect data to enhance your experience and personalize the content and advertising you see.
Visit our Privacy Policy to learn more. By continuing to use the site, you agree to this use of cookies and data.
  • In Czech Republic
  • List of Countries
  • For 7 days
  • Water Temperature
  • Weather Map
  • Weather Widgets
  • user-avatar
    Login

    Hourly Weather Wiktoria

    Today, 15 November, Friday

    Time Temperature Precipitation Wind Pressure Humidity
    00:00 +12°C° 0 mm 2 mps 747 mmHg 84%
    01:00 +10°C° 0 mm 2 mps 747 mmHg 89%
    02:00 +9°C° 0 mm 2 mps 747 mmHg 91%
    03:00 +8°C° 0 mm 2 mps 747 mmHg 92%
    04:00 +8°C° 0 mm 2 mps 746 mmHg 94%
    05:00 +9°C° 0 mm 2 mps 747 mmHg 88%
    06:00 +10°C° 0 mm 3 mps 747 mmHg 82%
    07:00 +11°C° 0 mm 4 mps 748 mmHg 76%
    08:00 +13°C° 0 mm 4 mps 748 mmHg 69%
    09:00 +14°C° 0 mm 4 mps 748 mmHg 61%
    10:00 +17°C° 0 mm 4 mps 747 mmHg 54%
    11:00 +17°C° 0 mm 5 mps 747 mmHg 51%
    12:00 +20°C° 0 mm 5 mps 747 mmHg 47%
    13:00 +21°C° 0 mm 6 mps 747 mmHg 44%
    14:00 +21°C° 0 mm 6 mps 746 mmHg 44%
    15:00 +20°C° 0 mm 6 mps 746 mmHg 45%
    16:00 +20°C° 0 mm 6 mps 746 mmHg 46%
    17:00 +19°C° 0 mm 5 mps 747 mmHg 50%
    18:00 +17°C° 0 mm 4 mps 747 mmHg 55%
    19:00 +16°C° 0 mm 3 mps 748 mmHg 59%
    20:00 +13°C° 0 mm 3 mps 748 mmHg 67%
    21:00 +12°C° 0 mm 3 mps 749 mmHg 75%
    22:00 +10°C° 0 mm 3 mps 750 mmHg 83%
    23:00 +9°C° 0 mm 3 mps 750 mmHg 85%

    Tomorrow, 16 November, Saturday

    Time Temperature Precipitation Wind Pressure Humidity
    00:00 +8°C° 0 mm 3 mps 750 mmHg 88%
    01:00 +5°C° 0 mm 3 mps 750 mmHg 90%
    02:00 +5°C° 0 mm 3 mps 750 mmHg 91%
    03:00 +4°C° 0 mm 3 mps 750 mmHg 91%
    04:00 +3°C° 0 mm 3 mps 750 mmHg 92%
    05:00 +5°C° 0 mm 3 mps 751 mmHg 84%
    06:00 +7°C° 0 mm 4 mps 751 mmHg 75%
    07:00 +8°C° 0 mm 4 mps 751 mmHg 67%
    08:00 +11°C° 0 mm 4 mps 751 mmHg 58%
    09:00 +13°C° 0 mm 4 mps 751 mmHg 49%
    10:00 +17°C° 0 mm 4 mps 751 mmHg 40%
    11:00 +18°C° 0 mm 4 mps 751 mmHg 36%
    12:00 +19°C° 0 mm 4 mps 750 mmHg 32%
    13:00 +21°C° 0 mm 4 mps 750 mmHg 29%
    14:00 +21°C° 0 mm 4 mps 750 mmHg 28%
    15:00 +21°C° 0 mm 4 mps 749 mmHg 28%
    16:00 +22°C° 0 mm 5 mps 749 mmHg 27%
    17:00 +20°C° 0 mm 5 mps 749 mmHg 33%
    18:00 +18°C° 0 mm 4 mps 750 mmHg 39%
    19:00 +17°C° 0 mm 4 mps 750 mmHg 44%
    20:00 +14°C° 0 mm 4 mps 750 mmHg 50%
    21:00 +13°C° 0 mm 4 mps 751 mmHg 56%
    22:00 +11°C° 0 mm 4 mps 751 mmHg 62%
    23:00 +11°C° 0 mm 4 mps 751 mmHg 65%

    Day after tomorrow, 17 November, Sunday

    Time Temperature Precipitation Wind Pressure Humidity
    00:00 +10°C° 0 mm 4 mps 751 mmHg 69%
    01:00 +8°C° 0 mm 5 mps 751 mmHg 72%
    02:00 +7°C° 0 mm 4 mps 751 mmHg 78%
    03:00 +6°C° 0 mm 4 mps 751 mmHg 84%
    04:00 +4°C° 0 mm 4 mps 751 mmHg 89%
    05:00 +6°C° 0 mm 4 mps 751 mmHg 81%
    06:00 +8°C° 0 mm 5 mps 752 mmHg 73%
    07:00 +9°C° 0 mm 5 mps 752 mmHg 64%
    08:00 +12°C° 0 mm 5 mps 752 mmHg 57%
    09:00 +15°C° 0 mm 5 mps 752 mmHg 49%
    10:00 +17°C° 0 mm 5 mps 752 mmHg 42%
    11:00 +19°C° 0 mm 5 mps 752 mmHg 40%
    12:00 +20°C° 0 mm 5 mps 751 mmHg 38%
    13:00 +21°C° 0 mm 6 mps 751 mmHg 36%
    14:00 +21°C° 0 mm 6 mps 751 mmHg 36%
    15:00 +21°C° 0 mm 6 mps 750 mmHg 36%
    16:00 +21°C° 0 mm 6 mps 750 mmHg 35%
    17:00 +19°C° 0 mm 5 mps 750 mmHg 40%
    18:00 +17°C° 0 mm 4 mps 751 mmHg 45%
    19:00 +14°C° 0 mm 4 mps 751 mmHg 50%
    20:00 +13°C° 0 mm 4 mps 751 mmHg 55%
    21:00 +11°C° 0 mm 3 mps 752 mmHg 60%
    22:00 +10°C° 0 mm 3 mps 752 mmHg 64%
    23:00 +9°C° 0 mm 3 mps 752 mmHg 68%

    18 November, Monday

    Time Temperature Precipitation Wind Pressure Humidity
    00:00 +9°C° 0 mm 3 mps 752 mmHg 72%
    01:00 +8°C° 0 mm 3 mps 751 mmHg 76%
    02:00 +7°C° 0 mm 2 mps 751 mmHg 79%
    03:00 +7°C° 0 mm 2 mps 751 mmHg 82%
    04:00 +7°C° 0 mm 1 mps 751 mmHg 84%
    05:00 +9°C° 0 mm 1 mps 751 mmHg 76%
    06:00 +11°C° 0 mm 1 mps 751 mmHg 68%
    07:00 +12°C° 0 mm 0 mps 751 mmHg 60%
    08:00 +15°C° 0 mm 1 mps 751 mmHg 52%
    09:00 +18°C° 0 mm 2 mps 751 mmHg 44%
    10:00 +20°C° 0 mm 2 mps 750 mmHg 36%
    11:00 +22°C° 0 mm 3 mps 750 mmHg 32%
    12:00 +25°C° 0 mm 3 mps 749 mmHg 29%
    13:00 +27°C° 0 mm 4 mps 748 mmHg 26%
    14:00 +28°C° 0 mm 4 mps 748 mmHg 25%
    15:00 +29°C° 0 mm 4 mps 747 mmHg 23%
    16:00 +30°C° 0 mm 4 mps 746 mmHg 22%
    17:00 +28°C° 0 mm 3 mps 746 mmHg 26%
    18:00 +25°C° 0 mm 2 mps 746 mmHg 30%
    19:00 +23°C° 0 mm 1 mps 746 mmHg 34%
    20:00 +22°C° 0 mm 1 mps 746 mmHg 36%
    21:00 +20°C° 0 mm 1 mps 746 mmHg 38%
    22:00 +19°C° 0 mm 1 mps 746 mmHg 40%
    23:00 +16°C° 0 mm 1 mps 746 mmHg 44%

    19 November, Tuesday

    Time Temperature Precipitation Wind Pressure Humidity
    00:00 +15°C° 0 mm 1 mps 745 mmHg 48%
    01:00 +14°C° 0 mm 1 mps 745 mmHg 52%
    02:00 +13°C° 0 mm 1 mps 745 mmHg 57%
    03:00 +13°C° 0 mm 1 mps 745 mmHg 61%
    04:00 +12°C° 0 mm 1 mps 745 mmHg 66%
    05:00 +13°C° 0 mm 1 mps 746 mmHg 63%
    06:00 +15°C° 0 mm 1 mps 746 mmHg 59%
    07:00 +17°C° 0 mm 2 mps 746 mmHg 56%
    08:00 +19°C° 0 mm 2 mps 746 mmHg 50%
    09:00 +21°C° 0 mm 3 mps 746 mmHg 44%
    10:00 +25°C° 0 mm 3 mps 747 mmHg 39%
    11:00 +26°C° 0 mm 4 mps 746 mmHg 38%
    12:00 +26°C° 0 mm 5 mps 746 mmHg 38%
    13:00 +27°C° 0 mm 6 mps 746 mmHg 38%
    14:00 +27°C° 0 mm 5 mps 746 mmHg 36%
    15:00 +28°C° 0 mm 5 mps 746 mmHg 34%
    16:00 +28°C° 0 mm 5 mps 746 mmHg 32%
    17:00 +25°C° 0 mm 5 mps 746 mmHg 38%
    18:00 +22°C° 0 mm 5 mps 747 mmHg 43%
    19:00 +20°C° 0 mm 4 mps 747 mmHg 49%
    20:00 +18°C° 0 mm 4 mps 748 mmHg 58%
    21:00 +14°C° 0 mm 4 mps 749 mmHg 66%
    22:00 +12°C° 0 mm 4 mps 749 mmHg 75%
    23:00 +11°C° 0 mm 4 mps 749 mmHg 79%

    20 November, Wednesday

    Time Temperature Precipitation Wind Pressure Humidity
    00:00 +10°C° 0 mm 3 mps 749 mmHg 83%
    01:00 +9°C° 0 mm 3 mps 749 mmHg 86%
    02:00 +8°C° 0 mm 3 mps 749 mmHg 87%
    03:00 +8°C° 0 mm 3 mps 749 mmHg 87%
    04:00 +7°C° 0 mm 2 mps 749 mmHg 88%
    05:00 +9°C° 0 mm 2 mps 749 mmHg 78%
    06:00 +12°C° 0 mm 2 mps 749 mmHg 67%
    07:00 +15°C° 0 mm 1 mps 750 mmHg 57%
    08:00 +19°C° 0 mm 1 mps 749 mmHg 46%
    09:00 +23°C° 0 mm 1 mps 749 mmHg 34%
    10:00 +26°C° 0 mm 1 mps 749 mmHg 23%
    11:00 +29°C° 0 mm 1 mps 749 mmHg 20%
    12:00 +31°C° 0 mm 1 mps 748 mmHg 17%
    13:00 +33°C° 0 mm 1 mps 748 mmHg 14%
    14:00 +33°C° 0 mm 1 mps 747 mmHg 14%
    15:00 +33°C° 0 mm 1 mps 747 mmHg 14%
    16:00 +34°C° 0 mm 1 mps 747 mmHg 14%
    17:00 +31°C° 0 mm 2 mps 747 mmHg 18%
    18:00 +29°C° 0 mm 3 mps 747 mmHg 21%
    19:00 +27°C° 0 mm 4 mps 747 mmHg 25%
    20:00 +26°C° 0 mm 4 mps 747 mmHg 26%
    21:00 +25°C° 0 mm 5 mps 747 mmHg 26%
    22:00 +23°C° 0 mm 5 mps 747 mmHg 26%
    23:00 +23°C° 0 mm 5 mps 746 mmHg 27%
    Show more